This is the latest recevied weather packets stored in our database for station/object WA6MHA-11. If no packets are shown the sender has not sent any weather packets the latest 10 day(s).
| Time | Temp. | Humidity | Pressure | Rain* | Wind** | Luminosity | Snow |
|---|---|---|---|---|---|---|---|
| 1777846997 | 22.78° C | 35% | 1014.4 hPa | 0 mm | - | - | - |
| 1777846756 | 22.22° C | 35% | 1014.4 hPa | 0 mm | - | - | - |
| 1777846557 | 21.67° C | 35% | 1014.6 hPa | 0 mm | - | - | - |
| 1777846515 | 21.67° C | 35% | 1014.6 hPa | 0 mm | - | - | - |
| 1777846273 | 21.67° C | 36% | 1014.5 hPa | 0 mm | - | - | - |
| 1777846032 | 20.56° C | 35% | 1014.5 hPa | 0 mm | - | - | - |
| 1777845790 | 21.11° C | 36% | 1014.5 hPa | 0 mm | - | - | - |
| 1777845549 | 21.67° C | 36% | 1014.7 hPa | 0 mm | - | - | - |
| 1777845067 | 21.67° C | 36% | 1014.8 hPa | 0 mm | - | - | - |
| 1777844825 | 21.11° C | 36% | 1014.8 hPa | 0 mm | - | - | - |
| 1777844585 | 20.56° C | 36% | 1014.7 hPa | 0 mm | - | - | - |
| 1777844343 | 20.56° C | 36% | 1014.8 hPa | 0 mm | - | - | - |
| 1777844102 | 20.56° C | 36% | 1014.8 hPa | 0 mm | - | - | - |
| 1777843860 | 20.56° C | 36% | 1014.8 hPa | 0 mm | - | - | - |
| 1777843619 | 20.56° C | 36% | 1014.8 hPa | 0 mm | - | - | - |
| 1777843377 | 20° C | 36% | 1014.8 hPa | 0 mm | - | - | - |
| 1777843136 | 20.56° C | 36% | 1014.8 hPa | 0 mm | - | - | - |
| 1777842895 | 20° C | 36% | 1014.9 hPa | 0 mm | - | - | - |
| 1777842654 | 20.56° C | 37% | 1014.9 hPa | 0 mm | - | - | - |
| 1777842418 | 20.56° C | 36% | 1014.9 hPa | 0 mm | - | - | - |
| 1777842172 | 20.56° C | 36% | 1015 hPa | 0 mm | - | - | - |
| 1777841930 | 20° C | 36% | 1014.9 hPa | 0 mm | - | - | - |
| 1777841688 | 20.56° C | 37% | 1014.9 hPa | 0 mm | - | - | - |
| 1777841447 | 20.56° C | 37% | 1014.9 hPa | 0 mm | - | - | - |
| 1777841206 | 20.56° C | 37% | 1014.9 hPa | 0 mm | - | - | - |
* Rain since midnight (hover to see other rain measurements)
** Current wind speed in m/s (hover to see current wind gust speed)